Regional Weather Roundup
Issued by NWS

Home | Current Version | Previous Version | Text Only | Print | Product List | Glossary Off
Versions: 1 2 3 4 5 6 7 8 9 10 11 12 13 14 15 16 17 18 19 20 21 22 23 24 25 26 27 28 29 30 31 32 33 34 35 36 37 38 39 40 41 42 43 44 45 46 47 48 49 50

000
ASUS43 KLMK 311410
RWRKY
KENTUCKY REGIONAL WEATHER ROUNDUP
NATIONAL WEATHER SERVICE LOUISVILLE KY
1000 AM EDT FRI JUL 31 2015

NOTE "FAIR" INDICATES FEW OR NO CLOUDS BELOW 12,000 FEET
WITH NO SIGNIFICANT WEATHER AND/OR OBSTRUCTIONS TO VISIBILITY.

KYZ001>023-026-027-061>063-070>075-311500-
WESTERN AND SOUTH CENTRAL KENTUCKY

CITY           SKY/WX    TMP DP  RH WIND       PRES   REMARKS
PADUCAH        SUNNY     79  68  69 N6        30.11S
HENDERSON      SUNNY    N/A N/A N/A MISG        N/A
OWENSBORO      SUNNY     79  69  71 N7        30.10S
HOPKINSVILLE   SUNNY     77  68  74 N6        30.10S
BOWLING GREEN  SUNNY     79  66  64 CALM      30.10S
GLASGOW        SUNNY    N/A N/A N/A CALM      30.11S
$$

KYZ024-025-028>034-038-045-046-053-311500-
NORTH CENTRAL KENTUCKY

CITY           SKY/WX    TMP DP  RH WIND       PRES   REMARKS
LOUISVILLE/SDF MOSUNNY   81  65  58 NW3       30.08S
LOUISVILLE/LOU SUNNY     79  66  64 SW3       30.09S
FORT KNOX      SUNNY     77  67  71 N1        30.08S
$$

KYZ035>037-039>044-047>052-055>060-089>105-311500-
NORTHEAST KENTUCKY

CITY           SKY/WX    TMP DP  RH WIND       PRES   REMARKS
LEXINGTON      SUNNY     76  64  66 W5        30.10S
COVINGTON      NOT AVBL
FRANKFORT      SUNNY     77  64  64 N3        30.09S
$$

KYZ054-064>069-076>088-106>120-311500-
SOUTHEAST KENTUCKY

CITY           SKY/WX    TMP DP  RH WIND       PRES   REMARKS
JACKSON        SUNNY     72  63  73 VRB3      30.11S
LONDON         SUNNY     76  60  57 CALM      30.12S
SOMERSET       SUNNY     72  61  68 CALM      30.12S
MIDDLESBORO    SUNNY     67  64  88 CALM      30.13S
MONTICELLO     SUNNY     75  63  66 CALM      30.14S
$$



USA.gov is the U.S. government's official web portal to all federal, state and local government web resources and services.